Regional Weather Roundup
Issued by NWS

Home | Current Version | Previous Version | Text Only | Print | Product List | Glossary Off
Versions: 1 2 3 4 5 6 7 8 9 10 11 12 13 14 15 16 17 18 19 20 21 22 23 24 25 26 27 28 29 30 31 32 33 34 35 36 37 38 39 40 41 42 43 44 45 46 47 48 49 50

000
ASUS43 KLSX 011007
RWRMO

WEATHER SUMMARY FOR MISSOURI
NATIONAL WEATHER SERVICE SPRINGFIELD MO
500 AM CDT SAT AUG 01 2015

NOTE: "FAIR" INDICATES FEW OR NO CLOUDS BELOW 12,000 FEET WITH NO
       SIGNIFICANT WEATHER AND/OR OBSTRUCTIONS TO VISIBILITY.
       CURRENT SKY AND/OR WEATHER CONDITIONS ARE NOT AVAILABLE FOR
       CHILLICOTHE AND FARMINGTON.

MOZ001>031-035>038-043-044-053-054-011100-
...NORTHERN AND WESTERN MISSOURI...

CITY           SKY/WX    TMP DP  RH WIND       PRES   REMARKS
KANSAS CTY INT CLEAR     71  67  87 S6        30.04F
KANSAS C DTWN  CLEAR     75  67  76 SW5       30.03F
LEE`S SUMMIT   CLEAR     72  66  81 SW6       30.06S
ST JOSEPH      CLEAR     71  69  93 CALM      30.04F
CHILLICOTHE      N/A     70  67  90 CALM      30.05F
KIRKSVILLE     PTCLDY    70  63  78 E3        30.06F

$$
MOZ066>068-077>081-088>096-101>105-011100-
...SOUTHWEST MISSOURI...

CITY           SKY/WX    TMP DP  RH WIND       PRES   REMARKS
SPRINGFIELD    CLEAR     64  58  80 S3        30.08S
JOPLIN         CLEAR     61  58  90 CALM      30.09R

$$
MOZ032>034-039>042-045>050-055>058-069>072-011100-
...CENTRAL MISSOURI...

CITY           SKY/WX    TMP DP  RH WIND       PRES   REMARKS
COLUMBIA       CLEAR     69  67  93 S5        30.04F
JEFFERSON CITY CLEAR     68  66  93 CALM      30.04F
ROLLA          CLEAR     64  62  93 SW6       30.06S
SEDALIA        CLEAR     69  65  86 S3        30.06S
WHITEMAN AFB   CLEAR     68  65  88 SW8       30.04S
WARRENSBURG    CLEAR     68  64  88 S3        30.05S
OSAGE BEACH    CLEAR     64  63  94 CALM      30.06F

$$
MOZ051-052-059>065-011100-
...EAST CENTRAL MISSOURI...

CITY           SKY/WX    TMP DP  RH WIND       PRES   REMARKS
ST LOUIS INTL  PTCLDY    74  67  78 CALM      30.04S
SPIRIT OF STL  CLEAR     67  67 100 CALM      30.02S
ST CHARLES     CLEAR     70  69  97 CALM      30.02S

$$
MOZ072>076-082>087-097>100-106>115-011100-
...SOUTH CENTRAL AND SOUTHEAST MISSOURI...

CITY           SKY/WX    TMP DP  RH WIND       PRES   REMARKS
CAPE GIRARDEAU CLEAR     67  66  97 CALM      30.02S
FARMINGTON     CLEAR     63  63 100 CALM      30.09F
POPLAR BLUFF   CLEAR     69  67  93 CALM      30.01S
WEST PLAINS    CLEAR     66  60  81 CALM      30.09F

$$


USA.gov is the U.S. government's official web portal to all federal, state and local government web resources and services.